Location: Podia
(1.5569°N, 32.3469°E)
Time: 09:11:28
(UTC+00:00)

Daily predictions for brighter satellites

Satellite Brightness Start Highest point End
(mag) Time Altitude Azimuth Time Altitude Azimuth Time Altitude Azimuth
FALCON 9 R/B 4.2 15:16:50 10° WNW 15:23:09 64° SSW 16:07:32 10° ESE
STARLINK-1137 3.5 16:10:24 10° NW 16:14:08 75° SW 16:17:53 10° SSE
STARLINK-1136 3.9 16:12:16 10° NW 16:16:07 64° SW 16:20:00 10° SSE
Cosmos 1869 Rocket 3.6 16:12:40 10° N 16:16:53 55° E 16:21:07 10° SSE
STARLINK-1195 3.7 16:13:18 10° NW 16:17:01 67° WSW 16:20:46 10° SSE
Cosmos 2016 Rocket 4.4 16:12:38 10° N 16:18:44 71° W 16:24:58 10° S
Cosmos 389 Rocket 3.7 16:16:15 10° SSE 16:18:58 22° E 16:21:40 10° NE
Cosmos 1939 Rocket 3.8 16:16:05 10° SE 16:19:37 30° ENE 16:23:10 10° NNE
STARLINK-1152 3.8 16:16:15 10° NW 16:19:58 61° SW 16:23:41 10° SSE
GPS 2-15 Rocket1 3.2 16:15:18 10° WNW 16:20:01 75° SSW 16:24:41 10° ESE
DELTA-4 R/B 3.4 16:13:42 10° WSW 16:20:51 45° S 16:24:00 10° E
Ariane H10+ 2.7 16:19:23 10° WSW 16:21:20 19° S 16:22:52 10° SE
STARLINK-60 4.5 16:23:41 10° SSE 16:25:53 17° SE 16:28:05 10° E
Geosat 4.3 16:24:58 10° SE 16:29:46 47° ENE 16:34:34 10° N
CZ-4 R/B 1.8 16:27:44 10° SSE 16:31:45 47° ENE 16:35:46 10° N
CZ-2C R/B 4.1 16:30:56 10° ENE 16:34:10 16° ESE 16:37:02 11° SE
ARGOS Delta rocket 3.9 16:29:24 10° SSE 16:34:21 64° E 16:39:00 10° N
Cosmos 1461 3.2 16:37:18 10° S 16:40:52 36° ESE 16:44:31 10° NE
NOAA 11 4.2 16:35:50 10° SSE 16:41:21 86° ENE 16:46:50 10° N
DELTA 2 R/B (1) 4.4 16:37:51 10° NNW 16:42:56 36° NE 16:46:39 17° E
CZ-2D R/B 3.3 16:40:07 10° SSE 16:43:55 59° E 16:47:43 10° N
Meteor 1-11 Rocket 4.0 16:39:09 10° NNE 16:44:23 45° E 16:49:38 10° SSE
Cosmos 1703 Rocket 4.1 16:41:40 10° SSE 16:45:39 36° E 16:49:37 10° NNE
Genesis I 3.5 16:42:50 10° NNW 16:46:36 64° WSW 16:50:23 10° SSE
BLOCK DM-SL R/B 3.7 16:44:30 10° W 16:48:41 83° S 17:00:01 14° E
Cosmos 1943 3.6 16:43:16 10° NNW 16:48:49 65° WSW 16:54:22 10° S
Cosmos 1500 3.3 16:46:26 10° N 16:50:14 76° W 16:54:02 10° S
Cosmos 2278 Rocket 2.4 16:49:30 10° SSW 16:55:08 74° WNW 17:00:46 10° N
Starlink 7 placeholder 3.4 16:53:20 10° SW 16:55:50 46° WNW 16:58:10 10° NNE
STARLINK-1180 4.3 16:53:09 10° NNW 16:57:00 38° NE 16:58:30 28° E
GPS 2-14 Rocket1 3.2 16:53:02 10° WSW 16:57:09 61° NNW 17:00:40 14° ENE
BLOCK DM-SL R/B 0.6 16:57:26 10° W 16:59:23 62° S 17:00:25 35° ESE
HJ-1C 4.3 16:59:34 29° ENE 16:59:34 29° ENE 17:02:28 10° NNE
MOS 1 Rocket 3.6 16:56:56 10° NE 17:00:51 35° ESE 17:02:48 23° SSE
Cosmos 1536 3.1 16:57:41 10° NNE 17:01:35 46° E 17:03:11 29° SE
STARLINK-1153 4.0 16:58:02 10° NNW 17:01:59 45° NE 17:03:18 33° ESE
STARLINK-1132 3.8 17:02:56 10° NNW 17:06:57 52° NE 17:08:04 39° ESE
Cosmos 405 Rocket 4.3 17:04:29 10° NNW 17:08:01 35° W 17:11:30 10° SSW
Cosmos 1515 4.0 17:09:06 42° E 17:09:15 43° E 17:12:52 10° NNE
ARIANE 5 DEB (SYLDA) 4.1 17:03:45 10° WSW 17:10:30 29° SSW 17:11:31 26° SSE
Cosmos 2346 Rocket 4.4 17:05:04 10° S 17:11:08 85° W 17:17:12 10° N
Atlas Centaur 2 4.1 17:04:48 10° W 17:11:25 32° SSW 17:16:50 16° SSE
Cosmos 1666 2.5 17:07:48 10° N 17:11:35 71° E 17:12:48 40° SSE
STARLINK-1177 3.6 17:07:51 10° NNW 17:11:56 62° NE 17:12:52 46° ESE
Ariane Rocket 4.2 17:12:37 24° ENE 17:12:37 24° ENE 17:16:19 10° NNE
Cosmos 371 Rocket 3.2 17:09:31 10° S 17:14:16 60° ESE 17:19:01 10° NNE
STARLINK-1167 3.5 17:12:48 10° NNW 17:16:54 73° ENE 17:17:40 55° ESE
CSL-04 Rocket 3.7 17:15:34 15° S 17:20:08 82° WSW 17:25:38 10° NNW
SJ-11-01 4.3 17:19:36 45° ESE 17:20:39 56° ENE 17:25:15 10° N
H-2A R/B 2.4 17:20:57 40° E 17:21:10 40° ENE 17:25:49 10° N
SL-24 R/B 4.1 17:19:07 28° S 17:21:25 82° WSW 17:25:58 10° NNW
STARLINK-1168 3.5 17:17:43 10° NNW 17:21:51 85° ENE 17:22:25 65° SE
SL-4 R/B 2.3 17:18:03 10° SW 17:22:15 73° NW 17:26:47 10° NNE
Okean 1-7 3.3 17:20:52 10° SSW 17:25:10 66° W 17:29:24 10° N
BLOCK DM-SL R/B 2.7 17:24:03 10° W 17:25:16 27° WNW 17:25:16 27° WNW
STARLINK-1164 3.5 17:22:40 10° NW 17:26:48 83° SW 17:27:11 71° SSE
DNEPR-1 R/B 4.2 17:24:22 10° N 17:28:13 40° NE 17:28:13 40° NE
MINOTAUR IV R/B 4.5 17:25:21 10° NNW 17:29:55 87° ENE 17:30:37 64° SSE
Cosmos 1072 Rocket 4.4 17:25:30 10° N 17:31:46 87° E 17:35:30 26° S
STARLINK-1182 3.6 17:27:40 10° NW 17:31:47 71° SW 17:31:59 69° SSW
Cosmos 1464 Rocket 3.9 17:26:25 10° N 17:32:47 80° E 17:36:04 31° S
YAOGAN 1 4.4 17:29:39 10° SSW 17:33:22 28° WSW 17:37:06 10° NW
NOSS 2-2 (D) 3.5 17:28:38 10° SSW 17:33:24 76° WNW 17:37:11 10° NNE
BREEZE-M DEB (TANK) 3.4 17:33:31 10° NNW 17:35:22 36° NNE 17:35:22 36° NNE
STARLINK-1163 3.9 17:32:41 10° NW 17:36:45 60° SW 17:36:47 60° SW
STARLINK-1172 4.2 17:37:42 10° NW 17:41:34 51° WSW 17:41:34 51° WSW
Meteor 1-4 Rocket 4.2 17:48:21 31° WNW 17:48:21 31° WNW 17:50:58 10° NNW
CZ-2C R/B 4.4 17:47:21 10° N 17:51:49 53° WNW 17:53:42 32° SW
ARGOS 3.2 17:52:47 63° NNE 17:52:47 63° NNE 17:57:23 10° N
Cosmos 2251 Rocket 4.4 17:47:31 10° NNW 17:52:29 45° WSW 17:54:08 34° SSW
Meteor 2-4 Rocket 3.6 17:51:54 67° SSW 17:52:37 81° W 17:57:59 10° N
Gbstr 26 Del rocket 4.0 17:46:50 10° NW 17:54:27 87° SW 17:55:20 70° SSE
ATLAS 5 CENTAUR R/B 3.0 17:53:53 10° WSW 17:57:02 33° SSW 17:57:02 33° SSW
Cosmos 2297 3.7 17:59:32 78° NW 17:59:32 78° NW 18:05:00 10° NNE
ARIANE 5 DEB (SYLDA) 3.0 17:53:49 10° W 17:58:53 60° SW 17:58:53 60° SW
IRS-1A Rocket 4.3 17:59:58 78° NNE 17:59:58 78° NNE 18:05:24 10° N
CZ-2C R/B 3.6 18:04:52 53° WSW 18:05:04 54° WSW 18:10:20 10° NNW
Cosmos 1607 4.1 18:03:00 10° NNW 18:09:23 70° WSW 18:09:29 70° WSW
USA 267 3.2 18:11:15 76° NNE 18:11:15 76° NNE 18:17:26 10° NNW
CZ-2C R/B 4.1 18:09:07 10° NNW 18:14:10 36° WNW 18:18:34 13° SW
